THORAD DELTA 1 DEB, 8161

Orbit data source: Space-Track

THORAD DELTA 1 DEB, 8161 is space debris in LEO originally from a launch on Fri, 15 Nov 1974 UTC launched from the Air Force Western Test Range (AFWTR). Debris objects in space refer to the collection of defunct objects orbiting the Earth. Examples of debris include non-operational satellites, rocket bodies, and fragments generated from explosions, collisions, or faulty payload assembly.

Loading next visibility...
Identifier
8161, 1974-089AB
Orbit
LEO
Country
Flag of USUS
Related business
Manufacturer
Unknown
Mission
Spacecraft
Bus & Motor
Unknown
Mass
Unknown
Launch date (UTC)
1974-11-15 (51 years ago)
Launch vehicle
Unknown
Launch site
Air Force Western Test Range (AFWTR)
Object type
Payload
Rocket body
Debris
Shape & HBR
Unknown
Radar Cross Section
Small (<0.1 m²)

Expand to show TLE details & history
Last TLE update: 22 hours ago

TLE from 22 hours ago
0 THORAD DELTA 1 DEB
1 08161U 74089AB  25261.14945174  .00000000  00000-0  38247-3 0  9992
2 08161 101.2327 329.3138 0369254 278.1235 104.9433 11.99400724555073
Epoch: 2025-09-18T03:35Z
TLE epoch observation values (Epoch: 2025-09-18T03:35:12.63Z)
Latitude
26.57618°
Longitude
-87.47855°
Altitude
1,773.331 km
Speed
6.958 km/s
True Right ascension
21h 34m 33s
True Declination
26° 27' 21"
Sunlit
Object was in full shadow at epoch
Visualization orbit readout
Latitude
Unknown
Longitude
Unknown
Altitude
Unknown
Speed
Unknown
Apparent Right ascension
Unknown
Apparent Declination
Unknown
Sunlit
N/A
Visualization observer readout
Local Sidereal Time
18:05:35
Azimuth
Unknown
Elevation
Unknown
Doppler factor
Unknown
Orbital elements
Apogee altitude
1,978.716 km
Perigee altitude
1,383.533 km
Semi-major axis
8,059.261 km
Eccentricity
0.03693
Inclination
101.2327°
RAAN
329.3138°
Arg. of periapsis
278.1235°
True anomaly
108.9801°
Mean anomaly
104.9433°
Eccentric anomaly
106.96688°
Mean motion
2.99986 °/min
Orbital period
120.01 mins
BSTAR
0.00038247
Loading maneuver chart data...
Computing Atmospheric mass density...
Loading historical data...
Loading historical data...
Loading historical data...
Loading historical data...
Loading historical data...
Loading historical data...
Loading historical data...

Documentation

Showing up to 5 results
|